| time (UTC) | temp F | wind direction | speed MPH | gust MPH | rain 1hr in | rain 24hr in | rain mn in | humidity % | barometer mb |
| 20260905083033 | 78 | 205 | 0.0 | 2.0 | 0.00 | 0.00 | 0.00 | 100 | 1013.2 |
| 20260905082530 | 78 | 205 | 1.0 | 2.0 | 0.00 | 0.00 | 0.00 | 100 | 1013.2 |
| 20260905082026 | 78 | 205 | 1.0 | 2.0 | 0.00 | 0.00 | 0.00 | 100 | 1013.2 |
| 20260905081534 | 78 | 205 | 0.0 | 2.0 | 0.00 | 0.00 | 0.00 | 100 | 1013.3 |
| 20260905081029 | 78 | 205 | 1.0 | 2.0 | 0.00 | 0.00 | 0.00 | 100 | 1013.3 |
| 20260905080557 | 78 | 183 | 1.0 | 2.0 | 0.00 | 0.00 | 0.00 | 100 | 1013.3 |
| 20260905080032 | 78 | 169 | 0.0 | 1.0 | 0.00 | 0.00 | 0.00 | 99 | 1013.4 |
| 20260905075529 | 78 | 169 | 0.0 | 1.0 | 0.00 | 0.00 | 0.00 | 99 | 1013.4 |
| 20260905075037 | 78 | 169 | 0.0 | 1.0 | 0.00 | 0.00 | 0.00 | 99 | 1013.4 |
| 20260905074547 | 78 | 169 | 0.0 | 2.0 | 0.00 | 0.00 | 0.00 | 99 | 1013.3 |
| 20260905074023 | 78 | 169 | 1.0 | 2.0 | 0.00 | 0.00 | 0.00 | 99 | 1013.3 |
| 20260905073538 | 78 | 169 | 0.0 | 2.0 | 0.00 | 0.00 | 0.00 | 99 | 1013.3 |
| 20260905073031 | 78 | 169 | 0.0 | 2.0 | 0.00 | 0.00 | 0.00 | 99 | 1013.3 |
| 20260905072546 | 78 | 169 | 0.0 | 2.0 | 0.00 | 0.00 | 0.00 | 99 | 1013.3 |
| 20260905072034 | 78 | 169 | 0.0 | 1.0 | 0.00 | 0.00 | 0.00 | 99 | 1013.3 |
| 20260905071551 | 78 | 200 | 0.0 | 0.0 | 0.00 | 0.00 | 0.00 | 99 | 1013.3 |
| 20260905071028 | 78 | 200 | 0.0 | 2.0 | 0.00 | 0.00 | 0.00 | 99 | 1013.3 |
| 20260905070523 | 78 | 200 | 1.0 | 2.0 | 0.00 | 0.00 | 0.00 | 99 | 1013.3 |
| 20260905070053 | 78 | 200 | 0.0 | 2.0 | 0.00 | 0.00 | 0.00 | 99 | 1013.4 |
| 20260905065528 | 78 | 200 | 1.0 | 2.0 | 0.00 | 0.00 | 0.00 | 98 | 1013.4 |
| 20260905065036 | 78 | 232 | 1.0 | 2.0 | 0.00 | 0.00 | 0.00 | 98 | 1013.4 |
| 20260905064532 | 78 | 232 | 0.0 | 1.0 | 0.00 | 0.00 | 0.00 | 98 | 1013.7 |
| 20260905064028 | 78 | 232 | 0.0 | 1.0 | 0.00 | 0.00 | 0.00 | 97 | 1013.7 |
| 20260905063536 | 78 | 236 | 0.0 | 2.0 | 0.00 | 0.00 | 0.00 | 97 | 1013.7 |
| 20260905063048 | 78 | 236 | 0.0 | 2.0 | 0.00 | 0.00 | 0.00 | 97 | 1013.8 |
| 20260905062535 | 78 | 236 | 1.0 | 2.0 | 0.00 | 0.00 | 0.00 | 97 | 1013.8 |
| 20260905062029 | 78 | 236 | 0.0 | 1.0 | 0.00 | 0.00 | 0.00 | 96 | 1013.8 |
| 20260905061525 | 78 | 236 | 0.0 | 2.0 | 0.00 | 0.00 | 0.00 | 96 | 1014.0 |
| 20260905061023 | 78 | 236 | 0.0 | 2.0 | 0.00 | 0.00 | 0.00 | 96 | 1014.0 |
| 20260905060538 | 79 | 236 | 1.0 | 2.0 | 0.00 | 0.00 | 0.00 | 96 | 1014.0 |
| 20260905060032 | 79 | 236 | 0.0 | 0.0 | 0.00 | 0.00 | 0.00 | 96 | 1014.3 |
| 20260905055529 | 79 | 236 | 0.0 | 1.0 | 0.00 | 0.00 | 0.00 | 96 | 1014.3 |
| 20260905055038 | 79 | 236 | 0.0 | 1.0 | 0.00 | 0.00 | 0.00 | 96 | 1014.3 |
| 20260905054534 | 79 | 236 | 0.0 | 1.0 | 0.00 | 0.00 | 0.00 | 96 | 1014.4 |
| 20260905054029 | 79 | 236 | 0.0 | 0.0 | 0.00 | 0.00 | 0.00 | 96 | 1014.4 |
| 20260905053529 | 79 | 236 | 0.0 | 1.0 | 0.00 | 0.00 | 0.00 | 96 | 1014.4 |
| 20260905053033 | 79 | 236 | 0.0 | 2.0 | 0.00 | 0.00 | 0.00 | 96 | 1014.7 |
| 20260905052529 | 79 | 236 | 0.0 | 2.0 | 0.00 | 0.00 | 0.00 | 96 | 1014.7 |
| 20260905052026 | 79 | 236 | 0.0 | 1.0 | 0.00 | 0.00 | 0.00 | 95 | 1014.7 |
| 20260905051600 | 79 | 236 | 0.0 | 1.0 | 0.00 | 0.00 | 0.00 | 94 | 1014.8 |
| 20260905051050 | 79 | 236 | 0.0 | 0.0 | 0.00 | 0.00 | 0.00 | 94 | 1014.8 |
| 20260905050525 | 79 | 236 | 0.0 | 0.0 | 0.00 | 0.00 | 0.00 | 94 | 1014.8 |
| 20260905050055 | 79 | 236 | 0.0 | 0.0 | 0.00 | 0.00 | 0.00 | 94 | 1015.0 |
| 20260905045530 | 79 | 236 | 0.0 | 0.0 | 0.00 | 0.00 | 0.00 | 93 | 1015.0 |
| 20260905045047 | 79 | 236 | 0.0 | 0.0 | 0.00 | 0.00 | 0.00 | 93 | 1015.0 |
| 20260905044527 | 79 | 236 | 0.0 | 0.0 | 0.00 | 0.00 | 0.00 | 93 | 1014.9 |
| 20260905044035 | 79 | 236 | 0.0 | 0.0 | 0.00 | 0.00 | 0.00 | 93 | 1014.9 |
| 20260905043529 | 79 | 236 | 0.0 | 2.0 | 0.00 | 0.00 | 0.00 | 93 | 1014.9 |
| 20260905043026 | 79 | 236 | 1.0 | 2.0 | 0.00 | 0.00 | 0.00 | 92 | 1015.0 |
| 20260905042535 | 79 | 236 | 0.0 | 2.0 | 0.00 | 0.00 | 0.00 | 92 | 1015.0 |
| 20260905042031 | 79 | 236 | 1.0 | 2.0 | 0.00 | 0.00 | 0.00 | 92 | 1015.0 |
| 20260905041523 | 79 | 236 | 1.0 | 1.0 | 0.00 | 0.00 | 0.00 | 91 | 1014.9 |
| 20260905041038 | 79 | 236 | 0.0 | 0.0 | 0.00 | 0.00 | 0.00 | 91 | 1014.9 |
| 20260905040534 | 79 | 236 | 0.0 | 0.0 | 0.00 | 0.00 | 0.00 | 90 | 1014.9 |
| 20260905040029 | 79 | 236 | 0.0 | 0.0 | 0.00 | 0.00 | 0.00 | 90 | 1015.0 |
| 20260905035552 | 79 | 236 | 0.0 | 0.0 | 0.00 | 0.00 | 0.00 | 90 | 1015.0 |
| 20260905035028 | 79 | 236 | 0.0 | 0.0 | 0.00 | 0.00 | 0.00 | 90 | 1015.0 |
| 20260905034523 | 80 | 236 | 0.0 | 0.0 | 0.00 | 0.00 | 0.00 | 90 | 1015.1 |
| 20260905034031 | 80 | 236 | 0.0 | 0.0 | 0.00 | 0.00 | 0.00 | 90 | 1015.1 |
| 20260905033548 | 80 | 236 | 0.0 | 0.0 | 0.00 | 0.00 | 0.00 | 89 | 1015.1 |
| 20260905033023 | 80 | 236 | 0.0 | 1.0 | 0.00 | 0.00 | 0.00 | 88 | 1015.0 |
| 20260905032533 | 80 | 236 | 0.0 | 1.0 | 0.00 | 0.00 | 0.00 | 88 | 1015.0 |
| 20260905032029 | 80 | 236 | 0.0 | 1.0 | 0.00 | 0.00 | 0.00 | 88 | 1015.0 |
| 20260905031533 | 80 | 236 | 0.0 | 0.0 | 0.00 | 0.00 | 0.00 | 88 | 1015.0 |
| 20260905031029 | 80 | 236 | 0.0 | 0.0 | 0.00 | 0.00 | 0.00 | 87 | 1015.0 |
| 20260905030527 | 80 | 236 | 0.0 | 0.0 | 0.00 | 0.00 | 0.00 | 87 | 1015.0 |
| 20260905030035 | 80 | 236 | 0.0 | 0.0 | 0.00 | 0.00 | 0.00 | 87 | 1014.9 |
| 20260905025553 | 80 | 236 | 0.0 | 2.0 | 0.00 | 0.00 | 0.00 | 87 | 1014.9 |
| 20260905025028 | 80 | 236 | 0.0 | 2.0 | 0.00 | 0.00 | 0.00 | 87 | 1014.9 |
| 20260905024538 | 80 | 236 | 1.0 | 1.0 | 0.00 | 0.00 | 0.00 | 87 | 1014.8 |
| 20260905024035 | 80 | 236 | 0.0 | 0.0 | 0.00 | 0.00 | 0.00 | 86 | 1014.8 |
| 20260905023531 | 80 | 236 | 0.0 | 0.0 | 0.00 | 0.00 | 0.00 | 86 | 1014.8 |
| 20260905023027 | 80 | 236 | 0.0 | 0.0 | 0.00 | 0.00 | 0.00 | 86 | 1014.8 |
| 20260905022534 | 80 | 236 | 0.0 | 0.0 | 0.00 | 0.00 | 0.00 | 86 | 1014.8 |
| 20260905022029 | 80 | 236 | 0.0 | 0.0 | 0.00 | 0.00 | 0.00 | 85 | 1014.8 |
| 20260905021526 | 81 | 236 | 0.0 | 1.0 | 0.00 | 0.00 | 0.00 | 85 | 1014.8 |
| 20260905021023 | 81 | 236 | 0.0 | 1.0 | 0.00 | 0.00 | 0.00 | 85 | 1014.8 |
| 20260905020539 | 81 | 236 | 0.0 | 1.0 | 0.00 | 0.00 | 0.00 | 85 | 1014.8 |
| 20260905020031 | 81 | 236 | 0.0 | 1.0 | 0.00 | 0.00 | 0.00 | 84 | 1014.8 |
| 20260905015528 | 81 | 236 | 0.0 | 1.0 | 0.00 | 0.00 | 0.00 | 84 | 1014.8 |
| 20260905015037 | 81 | 236 | 0.0 | 1.0 | 0.00 | 0.00 | 0.00 | 84 | 1014.8 |
| 20260905014531 | 81 | 236 | 0.0 | 1.0 | 0.00 | 0.00 | 0.00 | 83 | 1014.8 |
| 20260905014027 | 81 | 236 | 0.0 | 1.0 | 0.00 | 0.00 | 0.00 | 83 | 1014.8 |
| 20260905013535 | 81 | 236 | 0.0 | 1.0 | 0.00 | 0.00 | 0.00 | 83 | 1014.8 |
| 20260905013033 | 81 | 236 | 0.0 | 2.0 | 0.00 | 0.00 | 0.00 | 83 | 1014.8 |
| 20260905012545 | 81 | 236 | 0.0 | 2.0 | 0.00 | 0.00 | 0.00 | 83 | 1014.8 |
| 20260905012038 | 81 | 236 | 0.0 | 1.0 | 0.00 | 0.00 | 0.00 | 82 | 1014.8 |
| 20260905011554 | 81 | 236 | 0.0 | 2.0 | 0.00 | 0.00 | 0.00 | 82 | 1014.8 |
| 20260905011026 | 81 | 236 | 0.0 | 2.0 | 0.00 | 0.00 | 0.00 | 82 | 1014.8 |
| 20260905010534 | 82 | 236 | 0.0 | 1.0 | 0.00 | 0.00 | 0.00 | 82 | 1014.8 |
| 20260905010030 | 82 | 236 | 0.0 | 1.0 | 0.00 | 0.00 | 0.00 | 81 | 1014.4 |
| 20260905005527 | 82 | 236 | 0.0 | 1.0 | 0.00 | 0.00 | 0.00 | 80 | 1014.4 |
| 20260905005034 | 82 | 236 | 1.0 | 2.0 | 0.00 | 0.00 | 0.00 | 80 | 1014.4 |
| 20260905004530 | 82 | 236 | 0.0 | 2.0 | 0.00 | 0.00 | 0.00 | 80 | 1014.5 |
| 20260905004056 | 82 | 236 | 0.0 | 2.0 | 0.00 | 0.00 | 0.00 | 79 | 1014.5 |
| 20260905003531 | 82 | 236 | 1.0 | 3.0 | 0.00 | 0.00 | 0.00 | 79 | 1014.5 |
| 20260905003034 | 83 | 236 | 1.0 | 3.0 | 0.00 | 0.00 | 0.00 | 78 | 1014.3 |
| 20260905002531 | 83 | 236 | 0.0 | 3.0 | 0.00 | 0.00 | 0.00 | 78 | 1014.3 |
| 20260905002027 | 83 | 236 | 0.0 | 5.0 | 0.00 | 0.00 | 0.00 | 77 | 1014.3 |
| 20260905001538 | 84 | 233 | 3.0 | 7.0 | 0.00 | 0.00 | 0.00 | 76 | 1014.3 |
| 20260905001033 | 84 | 225 | 3.0 | 7.0 | 0.00 | 0.00 | 0.00 | 75 | 1014.3 |
| 20260905000528 | 85 | 213 | 3.0 | 7.0 | 0.00 | 0.00 | 0.00 | 74 | 1014.3 |
| 20260905000024 | 85 | 252 | 3.0 | 7.0 | 0.00 | 0.00 | 0.00 | 75 | 1014.3 |
| 20260904235535 | 85 | 239 | 2.0 | 3.0 | 0.00 | 0.00 | 0.00 | 78 | 1014.3 |
| 20260904235028 | 85 | 173 | 0.0 | 3.0 | 0.00 | 0.00 | 0.00 | 78 | 1014.3 |
| 20260904234534 | 85 | 169 | 1.0 | 5.0 | 0.00 | 0.00 | 0.00 | 78 | 1014.0 |
| 20260904234030 | 85 | 126 | 2.0 | 7.0 | 0.00 | 0.00 | 0.00 | 78 | 1014.0 |
| 20260904233528 | 85 | 150 | 2.0 | 6.0 | 0.00 | 0.00 | 0.00 | 78 | 1014.0 |
| 20260904233024 | 85 | 153 | 2.0 | 7.0 | 0.00 | 0.00 | 0.00 | 78 | 1013.8 |
| 20260904232601 | 85 | 146 | 2.0 | 10.0 | 0.00 | 0.00 | 0.00 | 78 | 1013.8 |
| 20260904232056 | 85 | 131 | 2.0 | 10.0 | 0.00 | 0.00 | 0.00 | 78 | 1013.8 |
| 20260904231528 | 86 | 143 | 2.0 | 7.0 | 0.00 | 0.00 | 0.00 | 79 | 1013.8 |
| 20260904231023 | 86 | 167 | 3.0 | 6.0 | 0.00 | 0.00 | 0.00 | 78 | 1013.8 |
| 20260904230539 | 86 | 158 | 1.0 | 6.0 | 0.00 | 0.00 | 0.00 | 78 | 1013.8 |
| 20260904230031 | 86 | 29 | 2.0 | 6.0 | 0.00 | 0.00 | 0.00 | 77 | 1013.7 |
| 20260904225550 | 86 | 165 | 0.0 | 5.0 | 0.00 | 0.00 | 0.00 | 77 | 1013.7 |
| 20260904225057 | 86 | 139 | 1.0 | 5.0 | 0.00 | 0.00 | 0.00 | 77 | 1013.7 |
| 20260904224532 | 86 | 130 | 2.0 | 7.0 | 0.00 | 0.00 | 0.00 | 76 | 1013.3 |
| 20260904224027 | 86 | 230 | 3.0 | 5.0 | 0.00 | 0.00 | 0.00 | 76 | 1013.3 |
| 20260904223535 | 86 | 159 | 1.0 | 6.0 | 0.00 | 0.00 | 0.00 | 76 | 1013.3 |
| 20260904223031 | 86 | 130 | 2.0 | 6.0 | 0.00 | 0.00 | 0.00 | 75 | 1013.1 |
| 20260904222525 | 86 | 96 | 2.0 | 5.0 | 0.00 | 0.00 | 0.00 | 75 | 1013.1 |
| 20260904222035 | 87 | 155 | 1.0 | 9.0 | 0.00 | 0.00 | 0.00 | 74 | 1013.1 |
| 20260904221531 | 87 | 150 | 2.0 | 12.0 | 0.00 | 0.00 | 0.00 | 74 | 1013.0 |
| 20260904221026 | 87 | 190 | 3.0 | 12.0 | 0.00 | 0.00 | 0.00 | 73 | 1013.0 |
| 20260904220535 | 87 | 150 | 3.0 | 9.0 | 0.00 | 0.00 | 0.00 | 72 | 1013.0 |
| 20260904220031 | 87 | 176 | 3.0 | 9.0 | 0.00 | 0.00 | 0.00 | 72 | 1013.1 |
| 20260904215527 | 87 | 87 | 1.0 | 9.0 | 0.00 | 0.00 | 0.00 | 72 | 1013.1 |
| 20260904215033 | 87 | 188 | 3.0 | 10.0 | 0.00 | 0.00 | 0.00 | 72 | 1013.1 |
| 20260904214527 | 87 | 143 | 2.0 | 10.0 | 0.00 | 0.00 | 0.00 | 72 | 1013.3 |
| 20260904214042 | 88 | 61 | 4.0 | 9.0 | 0.00 | 0.00 | 0.00 | 72 | 1013.3 |
| 20260904213531 | 88 | 153 | 2.0 | 10.0 | 0.00 | 0.00 | 0.00 | 71 | 1013.3 |
| 20260904213027 | 88 | 141 | 3.0 | 10.0 | 0.00 | 0.00 | 0.00 | 71 | 1013.6 |
| 20260904212523 | 88 | 43 | 1.0 | 10.0 | 0.00 | 0.00 | 0.00 | 72 | 1013.6 |
| 20260904212052 | 88 | 217 | 2.0 | 11.0 | 0.00 | 0.00 | 0.00 | 71 | 1013.6 |
| 20260904211527 | 88 | 133 | 5.0 | 11.0 | 0.00 | 0.00 | 0.00 | 72 | 1013.8 |
| 20260904211024 | 88 | 162 | 3.0 | 9.0 | 0.00 | 0.00 | 0.00 | 72 | 1013.8 |
| 20260904210533 | 88 | 139 | 2.0 | 12.0 | 0.00 | 0.00 | 0.00 | 72 | 1013.8 |
| 20260904210030 | 88 | 166 | 3.0 | 9.0 | 0.00 | 0.00 | 0.00 | 73 | 1013.8 |
| 20260904205526 | 88 | 152 | 2.0 | 7.0 | 0.00 | 0.00 | 0.00 | 73 | 1013.8 |
| 20260904205035 | 89 | 160 | 2.0 | 6.0 | 0.00 | 0.00 | 0.00 | 73 | 1013.8 |
| 20260904204528 | 89 | 111 | 1.0 | 9.0 | 0.00 | 0.00 | 0.00 | 74 | 1013.8 |
| 20260904204034 | 89 | 72 | 3.0 | 9.0 | 0.00 | 0.00 | 0.00 | 71 | 1013.8 |
| 20260904203549 | 89 | 79 | 3.0 | 7.0 | 0.00 | 0.00 | 0.00 | 70 | 1013.8 |
| 20260904203057 | 90 | 154 | 2.0 | 7.0 | 0.00 | 0.00 | 0.00 | 69 | 1013.6 |
| 20260904202532 | 90 | 115 | 2.0 | 5.0 | 0.00 | 0.00 | 0.00 | 69 | 1013.6 |
| 20260904202027 | 91 | 13 | 3.0 | 5.0 | 0.00 | 0.00 | 0.00 | 67 | 1013.6 |
| 20260904201523 | 91 | 102 | 2.0 | 5.0 | 0.00 | 0.00 | 0.00 | 66 | 1013.8 |
| 20260904201037 | 92 | 141 | 2.0 | 7.0 | 0.00 | 0.00 | 0.00 | 66 | 1013.8 |
| 20260904200533 | 92 | 185 | 2.0 | 10.0 | 0.00 | 0.00 | 0.00 | 66 | 1013.8 |
| 20260904200029 | 92 | 150 | 2.0 | 10.0 | 0.00 | 0.00 | 0.00 | 64 | 1013.8 |
| 20260904195556 | 93 | 41 | 1.0 | 12.0 | 0.00 | 0.00 | 0.00 | 62 | 1013.8 |
| 20260904195031 | 93 | 162 | 2.0 | 12.0 | 0.00 | 0.00 | 0.00 | 61 | 1013.8 |
| 20260904194529 | 93 | 192 | 2.0 | 6.0 | 0.00 | 0.00 | 0.00 | 62 | 1014.2 |
| 20260904194031 | 93 | 98 | 1.0 | 6.0 | 0.00 | 0.00 | 0.00 | 64 | 1014.2 |
| 20260904193525 | 92 | 181 | 2.0 | 7.0 | 0.00 | 0.00 | 0.00 | 63 | 1014.2 |
| 20260904193042 | 92 | 136 | 1.0 | 7.0 | 0.00 | 0.00 | 0.00 | 62 | 1014.3 |
| 20260904192530 | 92 | 160 | 3.0 | 11.0 | 0.00 | 0.01 | 0.00 | 64 | 1014.3 |
| 20260904192026 | 91 | 113 | 2.0 | 11.0 | 0.00 | 0.01 | 0.00 | 65 | 1014.3 |
| 20260904191522 | 91 | 159 | 3.0 | 9.0 | 0.00 | 0.01 | 0.00 | 65 | 1014.4 |
| 20260904191054 | 92 | 124 | 2.0 | 10.0 | 0.00 | 0.01 | 0.00 | 65 | 1014.4 |
| 20260904190529 | 92 | 124 | 2.0 | 10.0 | 0.00 | 0.01 | 0.00 | 65 | 1014.4 |
| 20260904190027 | 93 | 124 | 3.0 | 9.0 | 0.00 | 0.01 | 0.00 | 63 | 1014.5 |
| 20260904185534 | 93 | 141 | 5.0 | 13.0 | 0.00 | 0.01 | 0.00 | 64 | 1014.5 |
| 20260904185052 | 92 | 176 | 5.0 | 13.0 | 0.00 | 0.01 | 0.00 | 64 | 1014.5 |
| 20260904184610 | 92 | 105 | 2.0 | 9.0 | 0.00 | 0.01 | 0.00 | 65 | 1014.8 |
| 20260904184023 | 92 | 89 | 4.0 | 10.0 | 0.00 | 0.01 | 0.00 | 65 | 1014.8 |
| 20260904183558 | 91 | 67 | 3.0 | 10.0 | 0.00 | 0.01 | 0.00 | 68 | 1014.8 |
| 20260904183034 | 90 | 162 | 4.0 | 9.0 | 0.00 | 0.01 | 0.00 | 68 | 1014.8 |
| 20260904182530 | 90 | 103 | 2.0 | 6.0 | 0.00 | 0.27 | 0.00 | 69 | 1014.8 |
| 20260904182027 | 90 | 132 | 3.0 | 6.0 | 0.00 | 0.27 | 0.00 | 70 | 1014.8 |
| 20260904181532 | 90 | 149 | 3.0 | 9.0 | 0.00 | 0.27 | 0.00 | 67 | 1015.2 |
| 20260904181025 | 91 | 127 | 4.0 | 9.0 | 0.00 | 0.27 | 0.00 | 66 | 1015.2 |
| 20260904180541 | 92 | 41 | 2.0 | 5.0 | 0.00 | 0.27 | 0.00 | 66 | 1015.2 |
| 20260904180031 | 92 | 124 | 2.0 | 5.0 | 0.00 | 0.27 | 0.00 | 63 | 1015.2 |
| 20260904175546 | 93 | 115 | 1.0 | 5.0 | 0.00 | 0.27 | 0.00 | 64 | 1015.2 |
| 20260904175034 | 93 | 68 | 1.0 | 7.0 | 0.00 | 0.27 | 0.00 | 64 | 1015.2 |
| 20260904174529 | 93 | 75 | 3.0 | 7.0 | 0.00 | 0.27 | 0.00 | 62 | 1015.3 |
| 20260904174024 | 94 | 151 | 2.0 | 5.0 | 0.00 | 0.27 | 0.00 | 63 | 1015.3 |
| 20260904173531 | 94 | 143 | 2.0 | 6.0 | 0.00 | 0.27 | 0.00 | 61 | 1015.3 |
| 20260904173026 | 94 | 173 | 3.0 | 6.0 | 0.00 | 0.27 | 0.00 | 53 | 1015.4 |
| 20260904172539 | 93 | 188 | 1.0 | 7.0 | 0.00 | 0.28 | 0.00 | 55 | 1015.4 |
| 20260904172034 | 93 | 243 | 3.0 | 7.0 | 0.00 | 0.28 | 0.00 | 52 | 1015.4 |
| 20260904171551 | 93 | 191 | 3.0 | 7.0 | 0.00 | 0.28 | 0.00 | 55 | 1015.5 |
| 20260904171028 | 93 | 227 | 4.0 | 10.0 | 0.00 | 0.28 | 0.00 | 56 | 1015.5 |
| 20260904170557 | 93 | 169 | 3.0 | 10.0 | 0.00 | 0.28 | 0.00 | 57 | 1015.5 |
| 20260904170051 | 92 | 214 | 3.0 | 6.0 | 0.00 | 0.28 | 0.00 | 57 | 1015.7 |
| 20260904165554 | 92 | 191 | 3.0 | 6.0 | 0.00 | 0.28 | 0.00 | 60 | 1015.7 |
| 20260904165028 | 91 | 214 | 3.0 | 6.0 | 0.00 | 0.28 | 0.00 | 58 | 1015.7 |
| 20260904164523 | 91 | 179 | 3.0 | 6.0 | 0.00 | 0.28 | 0.00 | 61 | 1015.8 |
| 20260904164039 | 91 | 230 | 2.0 | 6.0 | 0.00 | 0.28 | 0.00 | 59 | 1015.8 |
| 20260904163533 | 91 | 162 | 2.0 | 7.0 | 0.00 | 0.28 | 0.00 | 59 | 1015.8 |
| 20260904163029 | 91 | 212 | 3.0 | 7.0 | 0.00 | 0.28 | 0.00 | 58 | 1015.8 |
| 20260904162525 | 91 | 219 | 3.0 | 10.0 | 0.00 | 0.28 | 0.00 | 62 | 1015.8 |
| 20260904162033 | 91 | 232 | 2.0 | 10.0 | 0.00 | 0.28 | 0.00 | 62 | 1015.8 |
| 20260904161530 | 90 | 269 | 3.0 | 7.0 | 0.00 | 0.28 | 0.00 | 63 | 1016.2 |
| 20260904161026 | 90 | 279 | 4.0 | 6.0 | 0.00 | 0.28 | 0.00 | 63 | 1016.2 |
| 20260904160544 | 90 | 228 | 3.0 | 6.0 | 0.00 | 0.28 | 0.00 | 64 | 1016.2 |
| 20260904160032 | 90 | 134 | 3.0 | 6.0 | 0.00 | 0.28 | 0.00 | 64 | 1016.3 |
| 20260904155526 | 89 | 179 | 3.0 | 6.0 | 0.00 | 0.28 | 0.00 | 65 | 1016.3 |
| 20260904155034 | 89 | 188 | 3.0 | 7.0 | 0.00 | 0.28 | 0.00 | 65 | 1016.3 |
| 20260904154532 | 89 | 129 | 3.0 | 7.0 | 0.00 | 0.28 | 0.00 | 63 | 1016.2 |
| 20260904154028 | 89 | 207 | 2.0 | 6.0 | 0.00 | 0.28 | 0.00 | 65 | 1016.2 |
| 20260904153537 | 88 | 185 | 2.0 | 6.0 | 0.00 | 0.28 | 0.00 | 65 | 1016.2 |
| 20260904153034 | 88 | 190 | 3.0 | 9.0 | 0.00 | 0.28 | 0.00 | 69 | 1016.3 |
| 20260904152530 | 88 | 146 | 3.0 | 9.0 | 0.00 | 0.28 | 0.00 | 69 | 1016.3 |
| 20260904152026 | 88 | 158 | 2.0 | 6.0 | 0.00 | 0.28 | 0.00 | 70 | 1016.3 |
| 20260904151522 | 88 | 248 | 2.0 | 5.0 | 0.00 | 0.28 | 0.00 | 71 | 1016.1 |
| 20260904151039 | 87 | 155 | 1.0 | 5.0 | 0.00 | 0.28 | 0.00 | 70 | 1016.1 |
| 20260904150532 | 87 | 192 | 3.0 | 5.0 | 0.00 | 0.28 | 0.00 | 70 | 1016.1 |
| 20260904150027 | 87 | 203 | 3.0 | 5.0 | 0.00 | 0.28 | 0.00 | 71 | 1016.2 |
| 20260904145534 | 87 | 162 | 2.0 | 9.0 | 0.00 | 0.28 | 0.00 | 71 | 1016.2 |
| 20260904145049 | 87 | 202 | 2.0 | 10.0 | 0.00 | 0.28 | 0.00 | 72 | 1016.2 |
| 20260904144533 | 87 | 222 | 3.0 | 10.0 | 0.00 | 0.28 | 0.00 | 70 | 1015.9 |
| 20260904144028 | 87 | 184 | 4.0 | 9.0 | 0.00 | 0.28 | 0.00 | 72 | 1015.9 |
| 20260904143525 | 86 | 205 | 2.0 | 9.0 | 0.00 | 0.28 | 0.00 | 75 | 1015.9 |
| 20260904143054 | 86 | 229 | 5.0 | 8.0 | 0.00 | 0.28 | 0.00 | 74 | 1015.8 |
| 20260904142529 | 86 | 179 | 4.0 | 9.0 | 0.00 | 0.28 | 0.00 | 76 | 1015.8 |
| 20260904142024 | 86 | 177 | 2.0 | 6.0 | 0.00 | 0.28 | 0.00 | 79 | 1015.8 |
| 20260904141533 | 86 | 249 | 2.0 | 9.0 | 0.00 | 0.28 | 0.00 | 80 | 1015.6 |
| 20260904141030 | 85 | 165 | 4.0 | 9.0 | 0.00 | 0.28 | 0.00 | 81 | 1015.5 |
| 20260904140524 | 85 | 262 | 3.0 | 9.0 | 0.00 | 0.28 | 0.00 | 81 | 1015.5 |
| 20260904140033 | 85 | 168 | 3.0 | 7.0 | 0.00 | 0.28 | 0.00 | 83 | 1015.4 |
| 20260904135527 | 84 | 231 | 3.0 | 6.0 | 0.00 | 0.28 | 0.00 | 87 | 1015.4 |
| 20260904135024 | 84 | 246 | 2.0 | 6.0 | 0.00 | 0.28 | 0.00 | 87 | 1015.4 |
| 20260904134539 | 84 | 224 | 2.0 | 7.0 | 0.00 | 0.28 | 0.00 | 88 | 1015.5 |
| 20260904134032 | 83 | 257 | 3.0 | 7.0 | 0.00 | 0.28 | 0.00 | 91 | 1015.5 |
| 20260904133528 | 83 | 325 | 3.0 | 7.0 | 0.00 | 0.28 | 0.00 | 92 | 1015.5 |
| 20260904133038 | 83 | 250 | 2.0 | 6.0 | 0.00 | 0.28 | 0.00 | 96 | 1015.4 |
| 20260904132532 | 82 | 240 | 4.0 | 6.0 | 0.00 | 0.28 | 0.00 | 99 | 1015.4 |
| 20260904132048 | 82 | 245 | 2.0 | 4.0 | 0.00 | 0.28 | 0.00 | 100 | 1015.4 |
| 20260904131536 | 82 | 211 | 2.0 | 4.0 | 0.00 | 0.28 | 0.00 | 100 | 1015.3 |
| 20260904131033 | 81 | 231 | 2.0 | 6.0 | 0.00 | 0.28 | 0.00 | 100 | 1015.3 |
| 20260904130548 | 81 | 233 | 2.0 | 6.0 | 0.00 | 0.28 | 0.00 | 100 | 1015.3 |
| 20260904130022 | 81 | 184 | 3.0 | 5.0 | 0.00 | 0.28 | 0.00 | 100 | 1015.2 |
| 20260904125539 | 80 | 174 | 2.0 | 5.0 | 0.00 | 0.28 | 0.00 | 100 | 1015.2 |
| 20260904125034 | 80 | 251 | 2.0 | 5.0 | 0.00 | 0.28 | 0.00 | 100 | 1015.2 |
| 20260904124531 | 80 | 238 | 2.0 | 5.0 | 0.00 | 0.28 | 0.00 | 100 | 1015.1 |
| 20260904124027 | 80 | 158 | 2.0 | 5.0 | 0.00 | 0.28 | 0.00 | 100 | 1015.1 |
| 20260904123531 | 79 | 243 | 3.0 | 4.0 | 0.00 | 0.28 | 0.00 | 100 | 1015.1 |
| 20260904123028 | 79 | 183 | 1.0 | 4.0 | 0.00 | 0.28 | 0.00 | 100 | 1015.0 |
| 20260904122603 | 79 | 195 | 3.0 | 4.0 | 0.00 | 0.28 | 0.00 | 100 | 1015.0 |
| 20260904122051 | 79 | 214 | 3.0 | 4.0 | 0.00 | 0.28 | 0.00 | 100 | 1015.0 |
| 20260904121523 | 79 | 229 | 1.0 | 5.0 | 0.00 | 0.28 | 0.00 | 100 | 1014.8 |
| 20260904121033 | 78 | 186 | 2.0 | 5.0 | 0.00 | 0.28 | 0.00 | 100 | 1014.8 |
| 20260904120530 | 78 | 198 | 1.0 | 3.0 | 0.00 | 0.28 | 0.00 | 100 | 1014.8 |
| 20260904120055 | 77 | 199 | 1.0 | 3.0 | 0.00 | 0.28 | 0.00 | 100 | 1014.8 |
| 20260904115529 | 77 | 199 | 0.0 | 3.0 | 0.00 | 0.28 | 0.00 | 100 | 1014.8 |
| 20260904115054 | 77 | 198 | 0.0 | 3.0 | 0.00 | 0.28 | 0.00 | 100 | 1014.8 |
| 20260904114549 | 77 | 164 | 0.0 | 0.0 | 0.00 | 0.28 | 0.00 | 100 | 1014.6 |
| 20260904114031 | 77 | 159 | 0.0 | 0.0 | 0.00 | 0.28 | 0.00 | 100 | 1014.6 |
| 20260904113525 | 77 | 159 | 0.0 | 0.0 | 0.00 | 0.28 | 0.00 | 100 | 1014.6 |
| 20260904113023 | 77 | 159 | 0.0 | 0.0 | 0.00 | 0.28 | 0.00 | 100 | 1014.3 |
| 20260904112535 | 77 | 159 | 0.0 | 0.0 | 0.00 | 0.28 | 0.00 | 100 | 1014.3 |
| 20260904112051 | 77 | 159 | 0.0 | 0.0 | 0.00 | 0.28 | 0.00 | 100 | 1014.3 |
| 20260904111528 | 77 | 159 | 0.0 | 0.0 | 0.00 | 0.28 | 0.00 | 100 | 1014.3 |
| 20260904111036 | 77 | 159 | 0.0 | 0.0 | 0.00 | 0.28 | 0.00 | 100 | 1014.3 |
| 20260904110533 | 77 | 159 | 0.0 | 0.0 | 0.00 | 0.28 | 0.00 | 100 | 1014.3 |
| 20260904110028 | 77 | 159 | 0.0 | 0.0 | 0.00 | 0.28 | 0.00 | 100 | 1014.3 |
| 20260904105534 | 77 | 159 | 0.0 | 0.0 | 0.00 | 0.28 | 0.00 | 100 | 1014.3 |
| 20260904105030 | 77 | 159 | 0.0 | 0.0 | 0.00 | 0.28 | 0.00 | 100 | 1014.3 |
| 20260904104547 | 77 | 159 | 0.0 | 0.0 | 0.00 | 0.28 | 0.00 | 100 | 1014.2 |
| 20260904104022 | 77 | 159 | 0.0 | 0.0 | 0.00 | 0.28 | 0.00 | 100 | 1014.2 |
| 20260904103531 | 77 | 159 | 0.0 | 0.0 | 0.00 | 0.28 | 0.00 | 100 | 1014.2 |
| 20260904103028 | 77 | 159 | 0.0 | 0.0 | 0.00 | 0.28 | 0.00 | 100 | 1014.1 |
| 20260904102524 | 77 | 159 | 0.0 | 0.0 | 0.00 | 0.28 | 0.00 | 100 | 1014.1 |
| 20260904102041 | 77 | 159 | 0.0 | 0.0 | 0.00 | 0.28 | 0.00 | 100 | 1014.1 |
| 20260904101539 | 77 | 159 | 0.0 | 0.0 | 0.00 | 0.28 | 0.00 | 100 | 1013.8 |
| 20260904101035 | 77 | 159 | 0.0 | 0.0 | 0.00 | 0.28 | 0.00 | 100 | 1013.8 |
| 20260904100530 | 77 | 159 | 0.0 | 0.0 | 0.00 | 0.28 | 0.00 | 100 | 1013.8 |
| 20260904100026 | 77 | 159 | 0.0 | 0.0 | 0.00 | 0.28 | 0.00 | 100 | 1013.7 |
| 20260904095526 | 77 | 159 | 0.0 | 0.0 | 0.00 | 0.28 | 0.00 | 100 | 1013.7 |
| 20260904095055 | 77 | 159 | 0.0 | 0.0 | 0.00 | 0.28 | 0.00 | 100 | 1013.7 |
| 20260904094530 | 77 | 159 | 0.0 | 0.0 | 0.00 | 0.28 | 0.00 | 100 | 1013.7 |
| 20260904094027 | 77 | 159 | 0.0 | 0.0 | 0.00 | 0.28 | 0.00 | 100 | 1013.7 |
| 20260904093523 | 77 | 159 | 0.0 | 0.0 | 0.00 | 0.28 | 0.00 | 100 | 1013.7 |
| 20260904093035 | 77 | 159 | 0.0 | 0.0 | 0.00 | 0.28 | 0.00 | 100 | 1013.6 |
| 20260904092533 | 77 | 159 | 0.0 | 0.0 | 0.00 | 0.28 | 0.00 | 100 | 1013.6 |
| 20260904092030 | 77 | 159 | 0.0 | 0.0 | 0.00 | 0.28 | 0.00 | 100 | 1013.6 |
| 20260904091527 | 77 | 159 | 0.0 | 0.0 | 0.00 | 0.28 | 0.00 | 100 | 1013.3 |
| 20260904091036 | 77 | 159 | 0.0 | 0.0 | 0.00 | 0.28 | 0.00 | 100 | 1013.3 |
| 20260904090553 | 77 | 159 | 0.0 | 0.0 | 0.00 | 0.28 | 0.00 | 100 | 1013.3 |
| 20260904090027 | 77 | 159 | 0.0 | 0.0 | 0.00 | 0.28 | 0.00 | 100 | 1013.5 |
| 20260904085537 | 77 | 159 | 0.0 | 0.0 | 0.00 | 0.28 | 0.00 | 100 | 1013.5 |
| 20260904085052 | 78 | 159 | 0.0 | 0.0 | 0.00 | 0.28 | 0.00 | 100 | 1013.5 |
| 20260904084529 | 78 | 159 | 0.0 | 0.0 | 0.00 | 0.28 | 0.00 | 100 | 1013.3 |
| 20260904084037 | 78 | 159 | 0.0 | 0.0 | 0.00 | 0.28 | 0.00 | 100 | 1013.3 |
| 20260904083529 | 77 | 159 | 0.0 | 0.0 | 0.00 | 0.28 | 0.00 | 100 | 1013.3 |